AirNav   Pilot Hours Calculator
 
 1290 users online  

16X Propwash Airport
Justin, Texas, USA

GOING TO JUSTIN?


FAA INFORMATION EFFECTIVE 15 JULY 2021

Location

FAA Identifier: 16X
Lat/Long: 33-04-50.2000N 097-21-30.3000W
33-04.836667N 097-21.505000W
33.0806111,-97.3584167
(estimated)
Elevation: 804 ft. / 245 m (estimated)
Variation: 07E (1985)
From city: 3 miles W of JUSTIN, TX
Time zone: UTC -5 (UTC -6 during Standard Time)
Zip code: 76247

Airport Operations

Airport use: Open to the public
Activation date: 08/1976
Control tower: no
ARTCC: FORT WORTH CENTER
FSS: FORT WORTH FLIGHT SERVICE STATION
NOTAMs facility: FTW (NOTAM-D service available)
Attendance: UNATNDD
Wind indicator: yes
Segmented circle: no
Lights: ACTVT LIRL RY 17/35 - CTAF.
Beacon: white-green (lighted land airport)
ACTVT ROTG BCN - CTAF.

Airport Communications

CTAF: 122.9
WX ASOS at AFW (6 nm S): PHONE 817-491-6188
WX ASOS at DTO (11 nm NE): 119.325 (940-383-8457)
WX AWOS-3 at LUD (15 nm NW): 118.225 (940-627-2365)
WX ASOS at FTW (16 nm S): PHONE 817-740-3346
WX ASOS at DFW (20 nm SE): PHONE 972-615-2608

Nearby radio navigation aids

VOR radial/distance  VOR name  Freq  Var
FUZr316/14.6RANGER VORTAC115.7006E
TTTr302/20.4MAVERICK VOR/DME113.1006E
CVEr291/25.6COWBOY VOR/DME116.2006E
UKWr134/35.8BOWIE VORTAC117.1506E
MQPr048/38.6MILLSAP VORTAC117.7009E

 
NDB name  Hdg/Dist  Freq  Var  ID
MUFIN356/11.336508EFT ..-. -
PINCK210/14.625704EDT -.. -

Airport Services

Runway Information

Runway 17/35

Dimensions: 3000 x 60 ft. / 914 x 18 m
Surface: asphalt, in fair condition
Runway edge lights: low intensity
RUNWAY 17  RUNWAY 35
Latitude: 33-05.083920N33-04.589110N
Longitude: 097-21.503135W097-21.506112W
Elevation: 804.0 ft.800.0 ft.
Traffic pattern: rightleft
Runway heading: 173 magnetic, 180 true353 magnetic, 000 true
Markings: basic, in fair conditionbasic, in fair condition
Obstructions: 36 ft. tree, 270 ft. from runway, 125 ft. left of centerline, 2:1 slope to clear
4 FT FENCE 60 FT FM RWY END 0 FT BOTH.
21 ft. tree, 201 ft. from runway, 112 ft. right of centerline
5 FT FENCE 70 FT FM RWY END ACROSS APCH; 15 FT ROAD 80 FT FM RWY END ACROSS APCH.

Airport Ownership and Management from official FAA records

Ownership: Privately-owned
Owner: PROPWASH OWNERS ASSOCIATION INC
15687 CESSNA ROAD
JUSTIN, TX 76247
Phone 940-648-1720
Manager: TOM SILVA
15663 CESSNA ROAD
JUSTIN, TX 76247
Phone (817) 371-8485

Airport Operational Statistics

Aircraft based on the field: 109
Single engine airplanes: 94
Multi engine airplanes: 5
Helicopters: 4
Ultralights: 6
    
Aircraft operations: avg 102/week *
94% local general aviation
6% transient general aviation
* for 12-month period ending 31 December 2018

Additional Remarks

FOR CD CTC REGIONAL APCH AT 972-615-2799.

Instrument Procedures

There are no published instrument procedures at 16X.

Some nearby airports with instrument procedures:

KAFW - Fort Worth Alliance Airport (6 nm S)
4T2 - Kenneth Copeland Airport (9 nm SW)
KDTO - Denton Enterprise Airport (11 nm NE)
KLUD - Decatur Municipal Airport (15 nm NW)
KFTW - Fort Worth Meacham International Airport (16 nm S)
KNFW - Fort Worth Naval Air Station JRB (Carswell Field) Airport (19 nm S)
KDFW - Dallas-Fort Worth International Airport (20 nm SE)
 
Loc | Ops | Rwys | IFR | FBO | Links
Com | Nav | Svcs | Stats | Notes

City of Fort Worth
 
Area around 16X (Propwash Airport)
 
Road maps at: MapQuest Bing Google
 
Aerial photo
WARNING: Photo may not be current or correct
Aerial photo of 16X (Propwash Airport)
Photo by Russell Sherwood
Taken in the Summer of 2016
looking north.

Do you have a better or more recent aerial photo of Propwash Airport that you would like to share? If so, please send us your photo.

 
Sectional chart

 
Airport distance calculator
Flying to Propwash Airport? Find the distance to fly.

From to 16X

Sunrise and sunset
Times for 30-Jul-2021
 Local
(UTC-5)
 Zulu
(UTC)
Morning civil twilight06:1511:15
Sunrise06:4211:42
Sunset20:2901:29
Evening civil twilight20:5701:57

Current date and time
Zulu (UTC)  30-Jul-2021 22:05:23
Local (UTC-5)  30-Jul-2021 17:05:23
 
METAR
KAFW 
7nm S 
302153Z 10005KT 10SM SCT060TCU 37/21 A3001 RMK AO2 SLP144 TCU ALQDS T03670206
KDTO 
11nm NE 
302153Z 13003KT 10SM CLR 37/21 A3002 RMK AO2 SLP155 T03670206
KFTW 
15nm S 
302153Z 23004KT 10SM SCT065 36/21 A3001 RMK AO2 SLP150 T03610206
KLUD 
15nm NW 
118.22 940-927-2365
302155Z AUTO 08006KT 7SM SCT065 SCT075 36/20 A3004 RMK AO2 T03600200
KNFW 
19nm S 
302152Z 22004KT 10SM FEW055 FEW250 37/21 A3002 RMK AO2 SLP147 T03720206 $
TAF
KAFW 
7nm S 
301730Z 3018/3118 18005KT P6SM SCT050 BKN250
KFTW 
15nm S 
301730Z 3018/3118 18005KT P6SM SCT050 BKN250
KNFW 
19nm S 
3015/3115 VRB06KT 9999 FEW060 FEW250 QNH3003INS FM302000 17007KT 9999 VCSH SCT060 SCT250 QNH2996INS FM310100 VRB04KT 9999 FEW050 QNH3000INS T39/3022Z T26/3112Z FN20048
NOTAMs
Click for the latest NOTAMs
NOTAMs are issued by the DoD/FAA and will open in a separate window not controlled by AirNav.

 

 
 

Would you like to see your business listed on this page?

 If your business provides an interesting product or service to pilots, flight crews, aircraft, or users of the Propwash Airport, you should consider listing it here.  To start the listing process, click on the button below
 
Add a business
 

Other Pages about Propwash Airport

Update a link
 
Copyright © AirNav, LLC. All rights reserved. Privacy Policy  Contact